Théo Duvaldestin

Théo Duvaldestin

Statistiques 2026

  • Courses courues : 102
  • Nb de victoires : 29
  • Nb de places : 51
  • Écart gagnant : -
  • Réussite à la gagne : 28%
  • Réussite à la place : 50%
Musique : 1a 1a 3a Da 2a 6a 1a 2a 1a 1a Da Da 1a 1a 6a 1a Da 2a
DateRangCatégorieAlloc.Dist.HippodromeChevalRed. KmSpé.
16/04/21 1 Trot 23 000€ 2 150m Argentan Vanity Luis 1'12"6 Attelé
20/04/21 5 Trot 29 000€ 2 100m Vincennes He l'Oseille 1'13"6 Attelé
23/04/21 1 Trot 18 000€ 2 700m Vincennes Hansford 1'16"3 Attelé
24/04/21 2 Trot 13 000€ 2 750m Lisieux Hide Destin 1'15"0 Attelé
25/04/21 D Trot 17 000€ 2 650m Cordemais Icylla du Goutier Attelé
25/04/21 D Trot 17 000€ 2 850m Cordemais Hear Destin Attelé
27/04/21 9 Trot 18 000€ 2 850m Vincennes Cesario Vici 1'14"9 Attelé
27/04/21 3 Trot 100 000€ 2 100m Vincennes In The Money 1'12"9 Attelé lire

Après avoir figuré au sein du peloton, a comblé du terrain tout au long de la phase finale.

28/04/21 7 Trot 20 000€ 2 850m Maure De Bretagne Heaven Destin 1'16"6 Attelé
29/04/21 5 Trot 23 000€ 2 850m Laval Fast Wind 1'14"8 Attelé
30/04/21 5 Trot 53 000€ 2 700m Vincennes Hells Bells 1'12"4 Attelé
30/04/21 7 Trot 38 000€ 2 175m Vincennes Impactdarche 1'14"8 Attelé
04/05/21 2 Trot 17 000€ 2 825m Chartres Hamandina 1'15"5 Attelé
05/05/21 3 Trot 50 000€ 2 875m Enghien Soisy Gloranie des Noes 1'15"0 Attelé lire

Longtemps en queue de peloton, a conclu de très bonne manière.

05/05/21 3 Trot 33 000€ 2 875m Enghien Soisy He l'Oseille 1'15"6 Attelé
14/05/21 7 Trot 18 000€ 2 700m La Capelle Iliade du Goutier 1'17"1 Attelé
14/05/21 3 Trot 18 000€ 2 750m La Capelle Hear Destin 1'17"0 Attelé
18/05/21 0 Trot 49 000€ 2 100m Vincennes Vanity Luis Attelé lire

N'a joué aucun rôle utile.

21/05/21 D Trot 17 000€ 2 600m Meslay Du Maine Halima du Citrus Attelé
21/05/21 D Trot 17 000€ 2 600m Meslay Du Maine Hit Money Attelé
21/05/21 5 Trot 19 000€ 2 900m Meslay Du Maine Grand Roi Kalouma 1'15"7 Attelé
25/05/21 D Trot 100 000€ 2 700m Vincennes In The Money Attelé
24/05/21 D Trot 13 000€ 2 625m La Rochelle Irina Wind Attelé
24/05/21 0 Trot 18 000€ 2 650m La Rochelle Duc du Chene Attelé
24/05/21 3 Trot 19 000€ 2 650m La Rochelle Galipette Pierji Attelé
24/05/21 5 Trot 30 000€ 2 625m La Rochelle Catch My Love Attelé
29/05/21 D Trot 38 000€ 2 150m Enghien Soisy Iroise de Cahot Attelé
29/05/21 D Trot 67 000€ 2 150m Enghien Soisy Carnaval du Vivier Attelé lire

A rejoint les animateurs aux tribunes, puis est venu dominer nettement la situation près du but , a été distancé pour avoir gêné un rival.

30/05/21 D Trot 13 000€ 2 750m Ecommoy Iggy d'Avril Attelé
30/05/21 D Trot 14 000€ 2 775m Ecommoy Hamandina Attelé
30/05/21 9 Trot 16 000€ 2 750m Ecommoy Giga du Chene Attelé
30/05/21 D Trot 14 000€ 2 775m Ecommoy Fierte de Corveil Attelé
30/05/21 6 Trot 22 000€ 2 750m Ecommoy Elegance Express Attelé
30/05/21 3 Trot 14 000€ 2 750m Ecommoy Faux Dollars TNC Attelé
06/06/21 D Trot 11 000€ 2 925m Bourigny Irina du Vivier Attelé
06/06/21 4 Trot 11 000€ 2 925m Bourigny Hunicois Attelé
06/06/21 5 Trot 11 000€ 2 925m Bourigny Halbi Attelé
06/06/21 0 Trot 10 000€ 2 900m Bourigny Garodam Attelé
06/06/21 3 Trot 17 000€ 2 925m Bourigny Fix It Attelé
07/06/21 1 Trot 22 000€ 3 050m Eauze Diego de Cahot 1'16"2 Attelé
14/06/21 3 Trot 13 000€ 2 825m Le Croise Laroche Izou Renka 1'16"9 Attelé
14/06/21 8 Trot 17 000€ 2 825m Le Croise Laroche Elitloppet 1'15"2 Attelé
14/06/21 1 Trot 14 000€ 2 825m Le Croise Laroche Irina Wind 1'18"0 Attelé
17/06/21 D Trot 20 000€ 2 875m Lyon Parilly Ideal de Jean Attelé
17/06/21 1 Trot 18 000€ 2 100m Lyon Parilly Hemma des Vauchaux 1'15"7 Attelé
17/06/21 4 Trot 18 000€ 2 850m Lyon Parilly Grand Rival 1'15"5 Attelé
17/06/21 D Trot 20 000€ 2 850m Lyon Parilly Exo d'Epuisay Attelé
17/06/21 1 Trot 24 000€ 2 850m Lyon Parilly Burning Man 1'14"8 Attelé
24/06/21 D Trot 27 000€ 2 850m Mauquenchy Burning Man Attelé
26/06/21 D Trot 12 000€ 2 725m Lisieux Iggy d'Avril Attelé